contact:dominique.lefevre@mio.osupytheas.fr, maurice.libes@osupytheas.fr, didier.mallarino@osupytheas.fr
Project:EMSO http://www.emso-fr.org/EMSO-France
Depth: 2436.0 m
Title:EMSO Ligure Ouest : Data MII capteur CSTAR
DateTime,Latitude,Longitude,Instrument_Serial,Reference_Counts,Signal_Counts,Corrected_Signal_raw_counts,Calculated_Beam_c_inverse_meters,Internal_thermistor_counts
DateTime,Latitude,Longitude,Instrument_Serial,Reference_Counts,Signal_Counts,Corrected_Signal_raw_counts,Calculated_Beam_c_inverse_meters,Internal_thermistor_counts
2021-12-30T00:00:07,42.805,6.029,CST-1368DR,5006,6402,13669,0.533,551
2021-12-30T00:03:08,42.805,6.029,CST-1368DR,5006,6402,13669,0.533,551
2021-12-30T00:06:10,42.805,6.029,CST-1368DR,5007,6402,13665,0.534,551
2021-12-30T00:09:12,42.805,6.029,CST-1368DR,5007,6403,13667,0.533,551
2021-12-30T00:12:13,42.805,6.029,CST-1368DR,5006,6403,13670,0.532,551
2021-12-30T00:15:15,42.805,6.029,CST-1368DR,5007,6403,13668,0.533,551
2021-12-30T00:18:16,42.805,6.029,CST-1368DR,5006,6402,13669,0.533,551
2021-12-30T00:21:18,42.805,6.029,CST-1368DR,5007,6403,13667,0.533,551
2021-12-30T00:24:19,42.805,6.029,CST-1368DR,5007,6402,13665,0.534,551
2021-12-30T00:27:21,42.805,6.029,CST-1368DR,5007,6403,13668,0.533,551
2021-12-30T00:30:23,42.805,6.029,CST-1368DR,5007,6403,13668,0.533,551
2021-12-30T00:33:24,42.805,6.029,CST-1368DR,5007,6403,13667,0.533,551
2021-12-30T00:36:26,42.805,6.029,CST-1368DR,5007,6401,13664,0.534,551
2021-12-30T00:39:27,42.805,6.029,CST-1368DR,5006,6402,13669,0.533,551
2021-12-30T00:42:29,42.805,6.029,CST-1368DR,5007,6403,13667,0.533,551
2021-12-30T00:45:30,42.805,6.029,CST-1368DR,5007,6403,13668,0.533,551
2021-12-30T00:48:32,42.805,6.029,CST-1368DR,5006,6400,13665,0.534,551
2021-12-30T00:51:34,42.805,6.029,CST-1368DR,5006,6401,13667,0.533,551
2021-12-30T00:54:35,42.805,6.029,CST-1368DR,5007,6403,13668,0.533,551
2021-12-30T00:57:37,42.805,6.029,CST-1368DR,5007,6402,13667,0.533,551
2021-12-30T01:00:38,42.805,6.029,CST-1368DR,5007,6402,13667,0.533,551
2021-12-30T01:03:40,42.805,6.029,CST-1368DR,5007,6402,13667,0.533,551
2021-12-30T01:06:42,42.805,6.029,CST-1368DR,5007,6402,13667,0.533,551
2021-12-30T01:09:43,42.805,6.029,CST-1368DR,5006,6402,13668,0.533,551
2021-12-30T01:12:45,42.805,6.029,CST-1368DR,5007,6402,13667,0.533,551
2021-12-30T01:15:46,42.805,6.029,CST-1368DR,5007,6402,13667,0.533,551
2021-12-30T01:18:48,42.805,6.029,CST-1368DR,5007,6402,13667,0.533,551
2021-12-30T01:21:49,42.805,6.029,CST-1368DR,5006,6403,13670,0.532,551
2021-12-30T01:24:51,42.805,6.029,CST-1368DR,5006,6403,13670,0.532,551
2021-12-30T01:27:53,42.805,6.029,CST-1368DR,5006,6402,13669,0.533,551
2021-12-30T01:30:54,42.805,6.029,CST-1368DR,5007,6401,13665,0.534,551
2021-12-30T01:33:56,42.805,6.029,CST-1368DR,5006,6402,13669,0.533,551
2021-12-30T01:36:57,42.805,6.029,CST-1368DR,5006,6402,13668,0.533,551
2021-12-30T01:39:59,42.805,6.029,CST-1368DR,5006,6402,13669,0.533,551
2021-12-30T01:43:01,42.805,6.029,CST-1368DR,5006,6402,13669,0.533,551
2021-12-30T01:46:02,42.805,6.029,CST-1368DR,5006,6401,13667,0.533,551
2021-12-30T01:49:04,42.805,6.029,CST-1368DR,5006,6401,13667,0.533,551
2021-12-30T01:52:05,42.805,6.029,CST-1368DR,5006,6402,13668,0.533,551
2021-12-30T01:55:07,42.805,6.029,CST-1368DR,5006,6399,13663,0.534,551
2021-12-30T01:58:08,42.805,6.029,CST-1368DR,5006,6402,13669,0.533,551
2021-12-30T02:01:10,42.805,6.029,CST-1368DR,5006,6402,13669,0.533,551
2021-12-30T02:04:12,42.805,6.029,CST-1368DR,5006,6399,13663,0.534,551
2021-12-30T02:07:13,42.805,6.029,CST-1368DR,5006,6401,13667,0.533,551
2021-12-30T02:10:15,42.805,6.029,CST-1368DR,5006,6401,13667,0.533,551
2021-12-30T02:13:16,42.805,6.029,CST-1368DR,5006,6401,13666,0.534,551
2021-12-30T02:16:18,42.805,6.029,CST-1368DR,5006,6402,13668,0.533,551
2021-12-30T02:19:19,42.805,6.029,CST-1368DR,5006,6400,13665,0.534,551
2021-12-30T02:22:21,42.805,6.029,CST-1368DR,5006,6401,13666,0.534,551
2021-12-30T02:25:23,42.805,6.029,CST-1368DR,5006,6401,13667,0.533,551
2021-12-30T02:28:24,42.805,6.029,CST-1368DR,5006,6401,13667,0.533,551
2021-12-30T02:31:26,42.805,6.029,CST-1368DR,5006,6401,13666,0.534,551
2021-12-30T02:34:27,42.805,6.029,CST-1368DR,5006,6401,13667,0.533,551
2021-12-30T02:37:29,42.805,6.029,CST-1368DR,5006,6402,13669,0.533,551
2021-12-30T02:40:31,42.805,6.029,CST-1368DR,5006,6401,13666,0.534,551
2021-12-30T02:43:32,42.805,6.029,CST-1368DR,5006,6402,13669,0.533,551
2021-12-30T02:46:34,42.805,6.029,CST-1368DR,5006,6402,13668,0.533,551
2021-12-30T02:49:35,42.805,6.029,CST-1368DR,5006,6400,13665,0.534,551
2021-12-30T02:52:37,42.805,6.029,CST-1368DR,5006,6402,13668,0.533,551
2021-12-30T02:55:38,42.805,6.029,CST-1368DR,5006,6400,13664,0.534,551
2021-12-30T02:58:40,42.805,6.029,CST-1368DR,5006,6401,13667,0.533,551
2021-12-30T03:01:42,42.805,6.029,CST-1368DR,5006,6400,13665,0.534,551
2021-12-30T03:04:43,42.805,6.029,CST-1368DR,5006,6402,13668,0.533,551
2021-12-30T03:07:45,42.805,6.029,CST-1368DR,5006,6401,13667,0.533,551
2021-12-30T03:10:46,42.805,6.029,CST-1368DR,5006,6401,13667,0.533,551
2021-12-30T03:13:48,42.805,6.029,CST-1368DR,5006,6401,13667,0.533,551
2021-12-30T03:16:50,42.805,6.029,CST-1368DR,5006,6401,13666,0.534,551
2021-12-30T03:19:51,42.805,6.029,CST-1368DR,5006,6401,13667,0.533,551
2021-12-30T03:22:53,42.805,6.029,CST-1368DR,5006,6401,13667,0.533,551
2021-12-30T03:25:54,42.805,6.029,CST-1368DR,5006,6401,13667,0.533,551
2021-12-30T03:28:56,42.805,6.029,CST-1368DR,5006,6401,13666,0.534,551
2021-12-30T03:31:57,42.805,6.029,CST-1368DR,5006,6402,13668,0.533,551
2021-12-30T03:34:59,42.805,6.029,CST-1368DR,5006,6401,13666,0.534,551
2021-12-30T03:38:01,42.805,6.029,CST-1368DR,5006,6402,13669,0.533,551
2021-12-30T03:41:02,42.805,6.029,CST-1368DR,5006,6401,13666,0.534,551
2021-12-30T03:44:04,42.805,6.029,CST-1368DR,5006,6402,13668,0.533,551
2021-12-30T03:47:05,42.805,6.029,CST-1368DR,5006,6401,13666,0.534,551
2021-12-30T03:50:07,42.805,6.029,CST-1368DR,5006,6401,13667,0.533,551
2021-12-30T03:53:08,42.805,6.029,CST-1368DR,5006,6401,13667,0.533,551
2021-12-30T03:56:10,42.805,6.029,CST-1368DR,5006,6400,13665,0.534,551
2021-12-30T03:59:12,42.805,6.029,CST-1368DR,5006,6398,13659,0.536,551
2021-12-30T04:02:13,42.805,6.029,CST-1368DR,5006,6400,13665,0.534,551
2021-12-30T04:05:15,42.805,6.029,CST-1368DR,5006,6401,13666,0.534,551
2021-12-30T04:08:16,42.805,6.029,CST-1368DR,5006,6401,13667,0.533,551
2021-12-30T04:11:18,42.805,6.029,CST-1368DR,5006,6390,13644,0.540,551
2021-12-30T04:14:20,42.805,6.029,CST-1368DR,5006,6401,13666,0.534,551
2021-12-30T04:17:21,42.805,6.029,CST-1368DR,5006,6401,13667,0.533,551
2021-12-30T04:20:23,42.805,6.029,CST-1368DR,5006,6401,13667,0.533,551
2021-12-30T04:23:24,42.805,6.029,CST-1368DR,5006,6399,13663,0.534,551
2021-12-30T04:26:26,42.805,6.029,CST-1368DR,5006,6400,13665,0.534,551
2021-12-30T04:29:27,42.805,6.029,CST-1368DR,5006,6396,13656,0.536,551
2021-12-30T04:32:29,42.805,6.029,CST-1368DR,5006,6401,13667,0.533,551
2021-12-30T04:35:31,42.805,6.029,CST-1368DR,5006,6400,13664,0.534,551
2021-12-30T04:38:32,42.805,6.029,CST-1368DR,5006,6401,13666,0.534,551
2021-12-30T04:41:34,42.805,6.029,CST-1368DR,5006,6399,13662,0.535,551
2021-12-30T04:44:35,42.805,6.029,CST-1368DR,5006,6401,13666,0.534,551
2021-12-30T04:47:37,42.805,6.029,CST-1368DR,5006,6401,13666,0.534,551
2021-12-30T04:50:39,42.805,6.029,CST-1368DR,5006,6400,13664,0.534,551
2021-12-30T04:53:40,42.805,6.029,CST-1368DR,5006,6401,13667,0.533,551
2021-12-30T04:56:42,42.805,6.029,CST-1368DR,5006,6401,13667,0.533,551
2021-12-30T04:59:43,42.805,6.029,CST-1368DR,5006,6401,13667,0.533,551
2021-12-30T05:02:45,42.805,6.029,CST-1368DR,5006,6401,13666,0.534,551
2021-12-30T05:05:46,42.805,6.029,CST-1368DR,5006,6400,13665,0.534,551
2021-12-30T05:08:48,42.805,6.029,CST-1368DR,5006,6400,13665,0.534,551
2021-12-30T05:11:50,42.805,6.029,CST-1368DR,5006,6400,13665,0.534,551
2021-12-30T05:14:51,42.805,6.029,CST-1368DR,5006,6401,13667,0.533,551
2021-12-30T05:17:53,42.805,6.029,CST-1368DR,5006,6400,13664,0.534,551
2021-12-30T05:20:54,42.805,6.029,CST-1368DR,5006,6401,13666,0.534,551
2021-12-30T05:23:56,42.805,6.029,CST-1368DR,5006,6401,13667,0.533,551
2021-12-30T05:26:57,42.805,6.029,CST-1368DR,5006,6401,13666,0.534,551
2021-12-30T05:29:59,42.805,6.029,CST-1368DR,5006,6401,13666,0.534,551
2021-12-30T05:33:01,42.805,6.029,CST-1368DR,5006,6400,13665,0.534,550
2021-12-30T05:36:02,42.805,6.029,CST-1368DR,5006,6400,13664,0.534,551
2021-12-30T05:39:04,42.805,6.029,CST-1368DR,5006,6401,13667,0.533,551
2021-12-30T05:42:05,42.805,6.029,CST-1368DR,5006,6400,13665,0.534,551
2021-12-30T05:45:07,42.805,6.029,CST-1368DR,5006,6400,13665,0.534,551
2021-12-30T05:48:09,42.805,6.029,CST-1368DR,5006,6400,13664,0.534,551
2021-12-30T05:51:10,42.805,6.029,CST-1368DR,5006,6401,13666,0.534,551
2021-12-30T05:54:12,42.805,6.029,CST-1368DR,5006,6401,13666,0.534,551
2021-12-30T05:57:13,42.805,6.029,CST-1368DR,5006,6401,13666,0.534,551
2021-12-30T06:00:15,42.805,6.029,CST-1368DR,5006,6401,13667,0.533,551
2021-12-30T06:03:16,42.805,6.029,CST-1368DR,5006,6401,13666,0.534,551
2021-12-30T06:06:18,42.805,6.029,CST-1368DR,5006,6400,13665,0.534,551
2021-12-30T06:09:20,42.805,6.029,CST-1368DR,5006,6401,13667,0.533,551
2021-12-30T06:12:21,42.805,6.029,CST-1368DR,5006,6399,13663,0.534,551
2021-12-30T06:15:23,42.805,6.029,CST-1368DR,5006,6400,13665,0.534,551
2021-12-30T06:18:24,42.805,6.029,CST-1368DR,5006,6401,13666,0.534,551
2021-12-30T06:21:26,42.805,6.029,CST-1368DR,5006,6402,13668,0.533,551
2021-12-30T06:24:28,42.805,6.029,CST-1368DR,5006,6401,13667,0.533,551
2021-12-30T06:27:29,42.805,6.029,CST-1368DR,5006,6400,13665,0.534,551
2021-12-30T06:30:31,42.805,6.029,CST-1368DR,5006,6401,13666,0.534,551
2021-12-30T06:33:32,42.805,6.029,CST-1368DR,5006,6401,13667,0.533,551
2021-12-30T06:36:34,42.805,6.029,CST-1368DR,5006,6401,13666,0.534,551
2021-12-30T06:39:35,42.805,6.029,CST-1368DR,5006,6401,13666,0.534,551
2021-12-30T06:42:37,42.805,6.029,CST-1368DR,5006,6400,13665,0.534,551
2021-12-30T06:45:39,42.805,6.029,CST-1368DR,5006,6399,13662,0.535,551
2021-12-30T06:48:40,42.805,6.029,CST-1368DR,5006,6401,13666,0.534,551
2021-12-30T06:51:42,42.805,6.029,CST-1368DR,5006,6400,13665,0.534,551
2021-12-30T06:54:43,42.805,6.029,CST-1368DR,5006,6400,13665,0.534,551
2021-12-30T06:57:45,42.805,6.029,CST-1368DR,5006,6401,13666,0.534,550
2021-12-30T07:00:46,42.805,6.029,CST-1368DR,5006,6400,13664,0.534,551
2021-12-30T07:03:48,42.805,6.029,CST-1368DR,5006,6400,13664,0.534,551
2021-12-30T07:06:50,42.805,6.029,CST-1368DR,5006,6401,13666,0.534,551
2021-12-30T07:09:51,42.805,6.029,CST-1368DR,5006,6400,13665,0.534,551
2021-12-30T07:12:53,42.805,6.029,CST-1368DR,5006,6400,13664,0.534,551
2021-12-30T07:15:54,42.805,6.029,CST-1368DR,5006,6400,13665,0.534,551
2021-12-30T07:18:56,42.805,6.029,CST-1368DR,5006,6400,13665,0.534,551
2021-12-30T07:21:58,42.805,6.029,CST-1368DR,5006,6401,13666,0.534,551
2021-12-30T07:24:59,42.805,6.029,CST-1368DR,5006,6397,13658,0.536,551
2021-12-30T07:28:01,42.805,6.029,CST-1368DR,5006,6401,13666,0.534,551
2021-12-30T07:31:02,42.805,6.029,CST-1368DR,5006,6401,13666,0.534,551
2021-12-30T07:34:04,42.805,6.029,CST-1368DR,5006,6399,13663,0.534,551
2021-12-30T07:37:05,42.805,6.029,CST-1368DR,5006,6401,13666,0.534,551
2021-12-30T07:40:07,42.805,6.029,CST-1368DR,5006,6400,13665,0.534,551
2021-12-30T07:43:09,42.805,6.029,CST-1368DR,5006,6400,13665,0.534,551
2021-12-30T07:46:10,42.805,6.029,CST-1368DR,5006,6400,13665,0.534,551
2021-12-30T07:49:12,42.805,6.029,CST-1368DR,5006,6398,13660,0.535,551
2021-12-30T07:52:13,42.805,6.029,CST-1368DR,5006,6399,13663,0.534,551
2021-12-30T07:55:15,42.805,6.029,CST-1368DR,5006,6399,13663,0.534,551
2021-12-30T07:58:17,42.805,6.029,CST-1368DR,5006,6399,13662,0.535,551
2021-12-30T08:01:18,42.805,6.029,CST-1368DR,5006,6400,13665,0.534,551
2021-12-30T08:04:20,42.805,6.029,CST-1368DR,5006,6400,13665,0.534,551
2021-12-30T08:07:21,42.805,6.029,CST-1368DR,5006,6399,13663,0.534,551
2021-12-30T08:10:23,42.805,6.029,CST-1368DR,5006,6400,13665,0.534,551
2021-12-30T08:13:24,42.805,6.029,CST-1368DR,5006,6399,13663,0.534,550
2021-12-30T08:16:26,42.805,6.029,CST-1368DR,5006,6400,13665,0.534,551
2021-12-30T08:19:28,42.805,6.029,CST-1368DR,5006,6400,13664,0.534,551
2021-12-30T08:22:29,42.805,6.029,CST-1368DR,5006,6399,13663,0.534,551
2021-12-30T08:25:31,42.805,6.029,CST-1368DR,5006,6399,13663,0.534,551
2021-12-30T08:28:32,42.805,6.029,CST-1368DR,5006,6400,13664,0.534,551
2021-12-30T08:31:34,42.805,6.029,CST-1368DR,5006,6400,13665,0.534,551
2021-12-30T08:34:36,42.805,6.029,CST-1368DR,5006,6401,13666,0.534,551
2021-12-30T08:37:37,42.805,6.029,CST-1368DR,5006,6400,13665,0.534,551
2021-12-30T08:40:39,42.805,6.029,CST-1368DR,5006,6401,13666,0.534,551
2021-12-30T08:43:40,42.805,6.029,CST-1368DR,5006,6401,13666,0.534,551
2021-12-30T08:46:42,42.805,6.029,CST-1368DR,5006,6401,13666,0.534,551
2021-12-30T08:49:43,42.805,6.029,CST-1368DR,5006,6400,13665,0.534,551
2021-12-30T08:52:45,42.805,6.029,CST-1368DR,5006,6401,13666,0.534,551
2021-12-30T08:55:47,42.805,6.029,CST-1368DR,5006,6400,13665,0.534,551
2021-12-30T08:58:48,42.805,6.029,CST-1368DR,5006,6400,13665,0.534,551
2021-12-30T09:01:50,42.805,6.029,CST-1368DR,5006,6401,13666,0.534,551
2021-12-30T09:04:51,42.805,6.029,CST-1368DR,5006,6401,13666,0.534,551
2021-12-30T09:07:53,42.805,6.029,CST-1368DR,5006,6400,13664,0.534,551
2021-12-30T09:10:54,42.805,6.029,CST-1368DR,5006,6401,13666,0.534,551
2021-12-30T09:13:56,42.805,6.029,CST-1368DR,5006,6400,13664,0.534,551
2021-12-30T09:16:58,42.805,6.029,CST-1368DR,5006,6400,13664,0.534,551
2021-12-30T09:19:59,42.805,6.029,CST-1368DR,5006,6400,13664,0.534,551
2021-12-30T09:23:01,42.805,6.029,CST-1368DR,5006,6400,13665,0.534,551
2021-12-30T09:26:02,42.805,6.029,CST-1368DR,5006,6400,13664,0.534,551
2021-12-30T09:29:04,42.805,6.029,CST-1368DR,5006,6401,13666,0.534,551
2021-12-30T09:32:06,42.805,6.029,CST-1368DR,5006,6399,13663,0.534,551
2021-12-30T09:35:07,42.805,6.029,CST-1368DR,5006,6401,13666,0.534,551
2021-12-30T09:38:09,42.805,6.029,CST-1368DR,5006,6401,13666,0.534,551
2021-12-30T09:41:10,42.805,6.029,CST-1368DR,5006,6401,13666,0.534,551
2021-12-30T09:44:12,42.805,6.029,CST-1368DR,5006,6400,13665,0.534,551
2021-12-30T09:47:13,42.805,6.029,CST-1368DR,5006,6400,13664,0.534,551
2021-12-30T09:50:15,42.805,6.029,CST-1368DR,5006,6400,13665,0.534,551
2021-12-30T09:53:17,42.805,6.029,CST-1368DR,5006,6400,13665,0.534,551
2021-12-30T09:56:18,42.805,6.029,CST-1368DR,5006,6400,13664,0.534,551
2021-12-30T09:59:20,42.805,6.029,CST-1368DR,5006,6401,13666,0.534,551
2021-12-30T10:02:21,42.805,6.029,CST-1368DR,5006,6398,13660,0.535,551
2021-12-30T10:05:23,42.805,6.029,CST-1368DR,5006,6400,13665,0.534,551
2021-12-30T10:08:25,42.805,6.029,CST-1368DR,5006,6400,13664,0.534,551
2021-12-30T10:11:26,42.805,6.029,CST-1368DR,5006,6400,13664,0.534,551
2021-12-30T10:14:28,42.805,6.029,CST-1368DR,5006,6400,13664,0.534,551
2021-12-30T10:17:29,42.805,6.029,CST-1368DR,5006,6399,13662,0.535,551
2021-12-30T10:20:31,42.805,6.029,CST-1368DR,5006,6400,13664,0.534,551
2021-12-30T10:23:32,42.805,6.029,CST-1368DR,5006,6400,13665,0.534,551
2021-12-30T10:26:34,42.805,6.029,CST-1368DR,5006,6400,13665,0.534,551
2021-12-30T10:29:36,42.805,6.029,CST-1368DR,5006,6400,13665,0.534,551
2021-12-30T10:32:37,42.805,6.029,CST-1368DR,5006,6400,13664,0.534,551
2021-12-30T10:35:39,42.805,6.029,CST-1368DR,5006,6400,13665,0.534,551
2021-12-30T10:38:40,42.805,6.029,CST-1368DR,5006,6400,13665,0.534,551
2021-12-30T10:41:42,42.805,6.029,CST-1368DR,5006,6400,13664,0.534,551
2021-12-30T10:44:43,42.805,6.029,CST-1368DR,5005,6399,13666,0.534,551
2021-12-30T10:47:45,42.805,6.029,CST-1368DR,5005,6400,13666,0.534,551
2021-12-30T10:50:47,42.805,6.029,CST-1368DR,5005,6400,13666,0.534,551
2021-12-30T10:53:48,42.805,6.029,CST-1368DR,5005,6399,13664,0.534,551
2021-12-30T10:56:50,42.805,6.029,CST-1368DR,5005,6400,13667,0.533,551
2021-12-30T10:59:51,42.805,6.029,CST-1368DR,5005,6400,13667,0.533,551
2021-12-30T11:02:53,42.805,6.029,CST-1368DR,5005,6400,13666,0.534,551
2021-12-30T11:05:55,42.805,6.029,CST-1368DR,5005,6400,13667,0.533,551
2021-12-30T11:08:56,42.805,6.029,CST-1368DR,5005,6400,13666,0.534,551
2021-12-30T11:11:58,42.805,6.029,CST-1368DR,5005,6400,13667,0.533,551
2021-12-30T11:14:59,42.805,6.029,CST-1368DR,5005,6400,13667,0.533,551
2021-12-30T11:18:01,42.805,6.029,CST-1368DR,5005,6399,13665,0.534,551
2021-12-30T11:21:02,42.805,6.029,CST-1368DR,5005,6400,13667,0.533,551
2021-12-30T11:24:04,42.805,6.029,CST-1368DR,5005,6399,13665,0.534,551
2021-12-30T11:27:06,42.805,6.029,CST-1368DR,5005,6399,13665,0.534,551
2021-12-30T11:30:07,42.805,6.029,CST-1368DR,5005,6400,13667,0.533,551
2021-12-30T11:33:09,42.805,6.029,CST-1368DR,5005,6400,13666,0.534,551
2021-12-30T11:36:10,42.805,6.029,CST-1368DR,5005,6399,13665,0.534,551
2021-12-30T11:39:12,42.805,6.029,CST-1368DR,5005,6400,13667,0.533,551
2021-12-30T11:42:14,42.805,6.029,CST-1368DR,5005,6400,13667,0.533,551
2021-12-30T11:45:15,42.805,6.029,CST-1368DR,5005,6398,13663,0.534,551
2021-12-30T11:48:17,42.805,6.029,CST-1368DR,5005,6399,13666,0.534,551
2021-12-30T11:51:18,42.805,6.029,CST-1368DR,5005,6399,13664,0.534,551
2021-12-30T11:54:20,42.805,6.029,CST-1368DR,5005,6399,13665,0.534,551
2021-12-30T11:57:21,42.805,6.029,CST-1368DR,5005,6397,13661,0.535,551
2021-12-30T12:00:23,42.805,6.029,CST-1368DR,5005,6399,13665,0.534,551
2021-12-30T12:03:25,42.805,6.029,CST-1368DR,5005,6399,13664,0.534,551
2021-12-30T12:06:26,42.805,6.029,CST-1368DR,5005,6399,13666,0.534,551
2021-12-30T12:09:28,42.805,6.029,CST-1368DR,5005,6399,13666,0.534,551
2021-12-30T12:12:29,42.805,6.029,CST-1368DR,5005,6398,13662,0.535,551
2021-12-30T12:15:31,42.805,6.029,CST-1368DR,5005,6399,13665,0.534,551
2021-12-30T12:18:33,42.805,6.029,CST-1368DR,5005,6399,13666,0.534,551
2021-12-30T12:21:34,42.805,6.029,CST-1368DR,5005,6400,13667,0.533,551
2021-12-30T12:24:36,42.805,6.029,CST-1368DR,5005,6399,13666,0.534,551
2021-12-30T12:27:37,42.805,6.029,CST-1368DR,5005,6399,13664,0.534,551
2021-12-30T12:30:39,42.805,6.029,CST-1368DR,5005,6399,13664,0.534,551
2021-12-30T12:33:40,42.805,6.029,CST-1368DR,5005,6397,13661,0.535,551
2021-12-30T12:36:42,42.805,6.029,CST-1368DR,5005,6399,13665,0.534,551
2021-12-30T12:39:44,42.805,6.029,CST-1368DR,5005,6399,13665,0.534,551
2021-12-30T12:42:45,42.805,6.029,CST-1368DR,5005,6400,13666,0.534,551
2021-12-30T12:45:47,42.805,6.029,CST-1368DR,5005,6399,13666,0.534,551
2021-12-30T12:48:48,42.805,6.029,CST-1368DR,5005,6399,13665,0.534,551
2021-12-30T12:51:50,42.805,6.029,CST-1368DR,5005,6397,13661,0.535,551
2021-12-30T12:54:51,42.805,6.029,CST-1368DR,5005,6399,13665,0.534,551
2021-12-30T12:57:53,42.805,6.029,CST-1368DR,5005,6399,13665,0.534,551
2021-12-30T13:00:55,42.805,6.029,CST-1368DR,5005,6399,13666,0.534,551
2021-12-30T13:03:56,42.805,6.029,CST-1368DR,5005,6398,13662,0.535,551
2021-12-30T13:06:58,42.805,6.029,CST-1368DR,5005,6399,13664,0.534,551
2021-12-30T13:09:59,42.805,6.029,CST-1368DR,5005,6399,13665,0.534,551
2021-12-30T13:13:01,42.805,6.029,CST-1368DR,5005,6399,13664,0.534,551
2021-12-30T13:16:03,42.805,6.029,CST-1368DR,5005,6399,13666,0.534,551
2021-12-30T13:19:04,42.805,6.029,CST-1368DR,5005,6399,13665,0.534,551
2021-12-30T13:22:06,42.805,6.029,CST-1368DR,5005,6398,13663,0.534,551
2021-12-30T13:25:07,42.805,6.029,CST-1368DR,5005,6399,13665,0.534,551
2021-12-30T13:28:09,42.805,6.029,CST-1368DR,5005,6399,13665,0.534,551
2021-12-30T13:31:10,42.805,6.029,CST-1368DR,5005,6399,13666,0.534,551
2021-12-30T13:34:12,42.805,6.029,CST-1368DR,5005,6399,13664,0.534,551
2021-12-30T13:37:14,42.805,6.029,CST-1368DR,5005,6399,13664,0.534,551
2021-12-30T13:40:15,42.805,6.029,CST-1368DR,5005,6399,13664,0.534,551
2021-12-30T13:43:17,42.805,6.029,CST-1368DR,5005,6399,13665,0.534,551
2021-12-30T13:46:18,42.805,6.029,CST-1368DR,5005,6399,13665,0.534,551
2021-12-30T13:49:20,42.805,6.029,CST-1368DR,5005,6399,13664,0.534,551
2021-12-30T13:52:22,42.805,6.029,CST-1368DR,5005,6399,13664,0.534,551
2021-12-30T13:55:23,42.805,6.029,CST-1368DR,5005,6398,13663,0.534,551
2021-12-30T13:58:25,42.805,6.029,CST-1368DR,5005,6398,13662,0.535,551
2021-12-30T14:01:26,42.805,6.029,CST-1368DR,5005,6398,13663,0.534,551
2021-12-30T14:04:28,42.805,6.029,CST-1368DR,5005,6399,13664,0.534,551
2021-12-30T14:07:29,42.805,6.029,CST-1368DR,5005,6399,13664,0.534,551
2021-12-30T14:10:31,42.805,6.029,CST-1368DR,5005,6398,13662,0.535,551
2021-12-30T14:13:33,42.805,6.029,CST-1368DR,5005,6398,13662,0.535,551
2021-12-30T14:16:34,42.805,6.029,CST-1368DR,5005,6398,13662,0.535,551
2021-12-30T14:19:36,42.805,6.029,CST-1368DR,5005,6399,13664,0.534,551
2021-12-30T14:22:37,42.805,6.029,CST-1368DR,5005,6399,13665,0.534,551
2021-12-30T14:25:39,42.805,6.029,CST-1368DR,5005,6399,13664,0.534,551
2021-12-30T14:28:40,42.805,6.029,CST-1368DR,5005,6398,13663,0.534,551
2021-12-30T14:31:42,42.805,6.029,CST-1368DR,5005,6399,13664,0.534,551
2021-12-30T14:34:44,42.805,6.029,CST-1368DR,5005,6399,13665,0.534,551
2021-12-30T14:37:45,42.805,6.029,CST-1368DR,5005,6399,13664,0.534,551
2021-12-30T14:40:47,42.805,6.029,CST-1368DR,5005,6397,13661,0.535,551
2021-12-30T14:43:48,42.805,6.029,CST-1368DR,5005,6398,13662,0.535,551
2021-12-30T14:46:50,42.805,6.029,CST-1368DR,5005,6399,13664,0.534,551
2021-12-30T14:49:52,42.805,6.029,CST-1368DR,5005,6399,13665,0.534,551
2021-12-30T14:52:53,42.805,6.029,CST-1368DR,5005,6399,13665,0.534,551
2021-12-30T14:55:55,42.805,6.029,CST-1368DR,5005,6399,13664,0.534,551
2021-12-30T14:58:56,42.805,6.029,CST-1368DR,5005,6399,13665,0.534,551
2021-12-30T15:01:58,42.805,6.029,CST-1368DR,5005,6398,13662,0.535,551
2021-12-30T15:04:59,42.805,6.029,CST-1368DR,5005,6399,13664,0.534,551
2021-12-30T15:08:01,42.805,6.029,CST-1368DR,5005,6398,13662,0.535,551
2021-12-30T15:11:03,42.805,6.029,CST-1368DR,5005,6399,13664,0.534,551
2021-12-30T15:14:04,42.805,6.029,CST-1368DR,5005,6399,13664,0.534,551
2021-12-30T15:17:06,42.805,6.029,CST-1368DR,5005,6399,13664,0.534,551
2021-12-30T15:20:07,42.805,6.029,CST-1368DR,5005,6398,13662,0.535,551
2021-12-30T15:23:09,42.805,6.029,CST-1368DR,5005,6399,13664,0.534,551
2021-12-30T15:26:11,42.805,6.029,CST-1368DR,5005,6398,13662,0.535,551
2021-12-30T15:29:12,42.805,6.029,CST-1368DR,5005,6398,13663,0.534,551
2021-12-30T15:32:14,42.805,6.029,CST-1368DR,5005,6397,13660,0.535,551
2021-12-30T15:35:15,42.805,6.029,CST-1368DR,5005,6397,13660,0.535,551
2021-12-30T15:38:17,42.805,6.029,CST-1368DR,5005,6397,13661,0.535,551
2021-12-30T15:41:18,42.805,6.029,CST-1368DR,5005,6398,13662,0.535,551
2021-12-30T15:44:20,42.805,6.029,CST-1368DR,5005,6399,13664,0.534,551
2021-12-30T15:47:22,42.805,6.029,CST-1368DR,5005,6397,13661,0.535,551
2021-12-30T15:50:23,42.805,6.029,CST-1368DR,5005,6398,13662,0.535,551
2021-12-30T15:53:25,42.805,6.029,CST-1368DR,5005,6398,13662,0.535,551
2021-12-30T15:56:26,42.805,6.029,CST-1368DR,5005,6399,13665,0.534,551
2021-12-30T15:59:28,42.805,6.029,CST-1368DR,5005,6398,13663,0.534,551
2021-12-30T16:02:29,42.805,6.029,CST-1368DR,5005,6396,13658,0.536,551
2021-12-30T16:05:31,42.805,6.029,CST-1368DR,5005,6398,13663,0.534,551
2021-12-30T16:08:33,42.805,6.029,CST-1368DR,5005,6398,13663,0.534,551
2021-12-30T16:11:34,42.805,6.029,CST-1368DR,5005,6397,13660,0.535,551
2021-12-30T16:14:36,42.805,6.029,CST-1368DR,5005,6397,13661,0.535,551
2021-12-30T16:17:37,42.805,6.029,CST-1368DR,5005,6397,13660,0.535,551
2021-12-30T16:20:39,42.805,6.029,CST-1368DR,5005,6397,13661,0.535,551
2021-12-30T16:23:41,42.805,6.029,CST-1368DR,5005,6398,13662,0.535,551
2021-12-30T16:26:42,42.805,6.029,CST-1368DR,5005,6395,13656,0.536,551
2021-12-30T16:29:44,42.805,6.029,CST-1368DR,5005,6398,13662,0.535,551
2021-12-30T16:32:45,42.805,6.029,CST-1368DR,5005,6398,13662,0.535,551
2021-12-30T16:35:47,42.805,6.029,CST-1368DR,5005,6397,13661,0.535,551
2021-12-30T16:38:48,42.805,6.029,CST-1368DR,5005,6398,13662,0.535,551
2021-12-30T16:41:50,42.805,6.029,CST-1368DR,5005,6399,13665,0.534,551
2021-12-30T16:44:52,42.805,6.029,CST-1368DR,5005,6397,13661,0.535,551
2021-12-30T16:47:53,42.805,6.029,CST-1368DR,5005,6398,13662,0.535,551
2021-12-30T16:50:55,42.805,6.029,CST-1368DR,5005,6398,13663,0.534,551